| time (UTC) | temp F | wind direction | speed MPH | gust MPH | rain 1hr in | rain 24hr in | rain mn in | humidity % | barometer mb |
| 20260506211558 | 43 | 19 | 1.0 | 4.0 | 0.02 | 0.71 | 0.64 | 96 | 1007.8 |
| 20260506210100 | 42 | 342 | 2.0 | 5.0 | 0.03 | 0.78 | 0.64 | 96 | 1008.0 |
| 20260506203120 | 43 | 319 | 3.0 | 5.0 | 0.04 | 0.77 | 0.63 | 96 | 1008.0 |
| 20260506201557 | 43 | 337 | 1.0 | 8.0 | 0.03 | 0.76 | 0.62 | 96 | 1008.0 |
| 20260506200101 | 43 | 319 | 4.0 | 6.0 | 0.02 | 0.76 | 0.61 | 95 | 1007.9 |
| 20260506193105 | 43 | 355 | 1.0 | 3.0 | 0.01 | 0.74 | 0.59 | 96 | 1007.7 |
| 20260506191555 | 43 | 31 | 3.0 | 5.0 | 0.01 | 0.74 | 0.59 | 96 | 1007.6 |
| 20260506190055 | 43 | 30 | 2.0 | 6.0 | 0.01 | 0.77 | 0.59 | 96 | 1007.7 |
| 20260506183058 | 42 | 29 | 1.0 | 4.0 | 0.01 | 0.76 | 0.57 | 96 | 1007.9 |
| 20260506181555 | 43 | 5 | 3.0 | 6.0 | 0.02 | 0.76 | 0.57 | 96 | 1008.1 |
| 20260506180051 | 43 | 26 | 3.0 | 6.0 | 0.03 | 0.76 | 0.57 | 96 | 1008.2 |
| 20260506173056 | 42 | 16 | 1.0 | 6.0 | 0.05 | 0.75 | 0.56 | 96 | 1008.5 |
| 20260506171550 | 42 | 355 | 2.0 | 8.0 | 0.06 | 0.74 | 0.56 | 96 | 1008.5 |
| 20260506170053 | 42 | 24 | 3.0 | 9.0 | 0.08 | 0.73 | 0.55 | 96 | 1008.9 |
| 20260506163056 | 41 | 5 | 1.0 | 6.0 | 0.11 | 0.70 | 0.52 | 96 | 1008.7 |
| 20260506161547 | 41 | 15 | 3.0 | 6.0 | 0.13 | 0.68 | 0.50 | 96 | 1008.8 |
| 20260506160055 | 41 | 355 | 1.0 | 6.0 | 0.15 | 0.66 | 0.48 | 96 | 1008.7 |
| 20260506153043 | 42 | 334 | 1.0 | 4.0 | 0.11 | 0.59 | 0.41 | 96 | 1008.7 |
| 20260506151542 | 42 | 360 | 2.0 | 5.0 | 0.09 | 0.56 | 0.38 | 96 | 1008.8 |
| 20260506150049 | 42 | 338 | 2.0 | 8.0 | 0.07 | 0.52 | 0.34 | 96 | 1008.6 |
| 20260506143041 | 42 | 28 | 1.0 | 6.0 | 0.05 | 0.48 | 0.30 | 96 | 1008.6 |
| 20260506141543 | 42 | 331 | 1.0 | 6.0 | 0.04 | 0.47 | 0.28 | 95 | 1008.7 |
| 20260506140137 | 42 | 304 | 2.0 | 5.0 | 0.04 | 0.46 | 0.28 | 95 | 1008.7 |
| 20260506133042 | 42 | 19 | 3.0 | 10.0 | 0.03 | 0.43 | 0.25 | 95 | 1008.8 |
| 20260506131534 | 42 | 25 | 2.0 | 3.0 | 0.04 | 0.43 | 0.25 | 95 | 1009.1 |
| 20260506130034 | 42 | 346 | 1.0 | 6.0 | 0.05 | 0.42 | 0.24 | 95 | 1009.1 |
| 20260506123032 | 43 | 19 | 2.0 | 5.0 | 0.08 | 0.40 | 0.22 | 95 | 1009.0 |
| 20260506121531 | 43 | 304 | 1.0 | 9.0 | 0.08 | 0.39 | 0.21 | 94 | 1009.4 |
| 20260506120048 | 44 | 333 | 3.0 | 5.0 | 0.06 | 0.37 | 0.19 | 94 | 1009.7 |
| 20260506113024 | 44 | 350 | 0.0 | 3.0 | 0.03 | 0.33 | 0.15 | 95 | 1009.6 |
| 20260506111523 | 44 | 340 | 0.0 | 2.0 | 0.01 | 0.31 | 0.13 | 95 | 1009.0 |
| 20260506110025 | 44 | 340 | 0.0 | 3.0 | 0.01 | 0.31 | 0.13 | 95 | 1009.1 |
| 20260506103036 | 45 | 278 | 0.0 | 2.0 | 0.02 | 0.30 | 0.12 | 95 | 1008.8 |
| 20260506101521 | 46 | 277 | 0.0 | 1.0 | 0.04 | 0.30 | 0.12 | 96 | 1009.1 |
| 20260506100019 | 46 | 46 | 0.0 | 2.0 | 0.04 | 0.30 | 0.12 | 95 | 1008.9 |
| 20260506093021 | 46 | 13 | 0.0 | 3.0 | 0.04 | 0.28 | 0.11 | 95 | 1009.2 |
| 20260506091519 | 46 | 35 | 2.0 | 4.0 | 0.02 | 0.27 | 0.09 | 94 | 1009.1 |
| 20260506090013 | 46 | 12 | 0.0 | 5.0 | 0.01 | 0.26 | 0.08 | 94 | 1009.3 |
| 20260506083013 | 47 | 337 | 0.0 | 4.0 | 0.01 | 0.26 | 0.08 | 94 | 1009.3 |
| 20260506081509 | 47 | 17 | 0.0 | 2.0 | 0.00 | 0.25 | 0.07 | 94 | 1009.3 |
| 20260506073006 | 47 | 316 | 0.0 | 2.0 | 0.01 | 0.25 | 0.07 | 94 | 1009.3 |
| 20260506071503 | 48 | 315 | 0.0 | 2.0 | 0.01 | 0.25 | 0.07 | 95 | 1009.1 |
| 20260506061556 | 49 | 300 | 1.0 | 4.0 | 0.00 | 0.24 | 0.06 | 93 | 1009.1 |
| 20260506043049 | 51 | 306 | 0.0 | 3.0 | 0.07 | 0.21 | 0.03 | 95 | 1008.6 |
| 20260506041556 | 51 | 307 | 0.0 | 1.0 | 0.05 | 0.19 | 0.01 | 95 | 1008.5 |
| 20260506040043 | 51 | 306 | 0.0 | 2.0 | 0.06 | 0.18 | 0.18 | 94 | 1008.6 |
| 20260506033040 | 53 | 305 | 0.0 | 2.0 | 0.02 | 0.14 | 0.14 | 89 | 1008.2 |
| 20260506031542 | 54 | 261 | 0.0 | 4.0 | 0.02 | 0.14 | 0.14 | 85 | 1008.1 |
| 20260506030033 | 56 | 298 | 2.0 | 5.0 | 0.00 | 0.12 | 0.12 | 78 | 1007.9 |
| 20260506023049 | 57 | 300 | 4.0 | 10.0 | 0.01 | 0.12 | 0.12 | 74 | 1007.3 |
| 20260506021550 | 58 | 255 | 2.0 | 8.0 | 0.01 | 0.12 | 0.12 | 77 | 1007.4 |
| 20260506020028 | 58 | 348 | 2.0 | 11.0 | 0.01 | 0.12 | 0.12 | 80 | 1007.3 |
| 20260506013031 | 61 | 234 | 1.0 | 4.0 | 0.00 | 0.11 | 0.11 | 85 | 1006.5 |
| 20260506011523 | 61 | 257 | 0.0 | 3.0 | 0.00 | 0.11 | 0.11 | 84 | 1005.9 |
| 20260506010020 | 62 | 197 | 2.0 | 5.0 | 0.00 | 0.11 | 0.11 | 83 | 1005.6 |
| 20260506003016 | 63 | 165 | 2.0 | 6.0 | 0.00 | 0.11 | 0.11 | 78 | 1005.0 |
| 20260506001514 | 63 | 168 | 0.0 | 7.0 | 0.00 | 0.11 | 0.11 | 79 | 1004.7 |
| 20260506000013 | 63 | 187 | 3.0 | 7.0 | 0.00 | 0.11 | 0.11 | 76 | 1004.8 |
| 20260505233011 | 64 | 177 | 3.0 | 10.0 | 0.00 | 0.11 | 0.11 | 77 | 1004.8 |
| 20260505231514 | 63 | 229 | 2.0 | 7.0 | 0.00 | 0.11 | 0.11 | 80 | 1004.7 |
| 20260505230020 | 63 | 251 | 2.0 | 6.0 | 0.00 | 0.11 | 0.11 | 80 | 1004.2 |
| 20260505223009 | 64 | 249 | 3.0 | 8.0 | 0.00 | 0.11 | 0.11 | 76 | 1004.1 |
| 20260505221507 | 63 | 252 | 4.0 | 9.0 | 0.00 | 0.11 | 0.11 | 78 | 1004.3 |
| 20260505220006 | 62 | 230 | 5.0 | 10.0 | 0.00 | 0.11 | 0.11 | 81 | 1004.1 |
| 20260505213014 | 60 | 219 | 3.0 | 7.0 | 0.00 | 0.11 | 0.11 | 87 | 1004.1 |